Flag for Guinea Weather past 2 weeks in Conakry, Guinea

Now
77 °F

Thunderstorms. Passing clouds.


Feels Like: 78 °F
Forecast: 77 / 82 °F
Wind: 7 mph from Northeast

Location: Conakry / Gbessia

Current Time: Sep 23, 2014 at 1:21:56 AM

Latest Report: Sep 23, 2014 at 12:00 AM


Visibility: N/A

Pressure: 29.95 "Hg

Humidity: 94%

Dew point: 75 °F

Location of ConakryLocation

Historic Weather in Conakry — Graph

°F

Conakry temperature yesterday

Maximum temperature yesterday: 88 °F (at 1:00 PM)
Minimum temperature yesterday: 72 °F (at 12:00 AM)
Average temperature yesterday: 79 °F

Past Weeks' High & Low Weather Summary

 TemperatureHumidityPressure
High88 °F (Sep 22, 1:00 PM)100% (Sep 8, 7:00 AM)30.01 "Hg (Sep 8, 7:00 AM)
Low72 °F (Sep 13, 9:00 PM)66% (Sep 10, 3:00 PM)29.80 "Hg (Sep 10, 5:00 PM)
Average79 °F89%29.91 "Hg
* Reported Sep 7 11:00 PM — Sep 22 11:00 PM, Conakry, Weather by CustomWeather, © 2014

Note: Actual official high and low records may vary slightly from our data, if they occured in-between our weather recording intervals... More about our weather records

Advertising

Conakry weather history for previous 24 hours

 ConditionsComfort  
Time TempWeatherWind HumidityBarometerVisibility
11:00 PM
Sep 22
77 °FLight rain. Passing clouds.9 mph100%29.95 "Hg5 mi
10:00 PM77 °FThunderstorms. Partly cloudy.9 mph100%29.92 "Hg5 mi
9:00 PM75 °FThunderstorms. Partly cloudy.9 mph94%29.92 "Hg4 mi
7:00 PM82 °FThunderstorms. Passing clouds.7 mph79%29.86 "HgN/A
6:00 PM84 °FThunderstorms. Partly sunny.7 mph74%29.83 "HgN/A
5:00 PM86 °FThunderstorms. Broken clouds.12 mph75%29.83 "HgN/A
4:00 PM86 °FThunderstorms. Scattered clouds.12 mph75%29.83 "HgN/A
3:00 PM88 °FScattered clouds.9 mph70%29.86 "HgN/A
2:00 PM88 °FBroken clouds.7 mph70%29.86 "HgN/A
1:00 PM88 °FBroken clouds.7 mph70%29.86 "HgN/A
12:00 PM84 °FBroken clouds.2 mph74%29.89 "HgN/A
11:00 AM82 °FBroken clouds.7 mph79%29.92 "HgN/A
9:00 AM77 °FBroken clouds.14 mph89%29.92 "HgN/A
8:00 AM75 °FBroken clouds.12 mph94%29.92 "HgN/A
7:00 AM75 °FPartly sunny.7 mph94%29.92 "HgN/A
6:00 AM75 °FPassing clouds.5 mph94%29.89 "HgN/A
5:00 AM73 °FThunderstorms. Passing clouds.5 mph100%29.89 "HgN/A
4:00 AM73 °FThunderstorms. Passing clouds.3 mph100%29.89 "HgN/A
3:00 AM73 °FThunderstorms. Mostly cloudy.5 mph100%29.92 "HgN/A
2:00 AM72 °FThunderstorms. Mostly cloudy.5 mph100%29.92 "Hg5 mi
1:00 AM73 °FThunderstorms. Mostly cloudy.5 mph100%29.92 "Hg5 mi
Weather by CustomWeather, © 2014

See weather overviewHow to use our weather pages